Back to catalog

GRUS-1D

AliveScienceSSO
NORAD 47936·PAYLOAD·🇯🇵 Japan

Launched Mar 22, 2021 from Baikonur Cosmodrome

Loading…

Next Passes (next 24 hours)

TLE

FreshSource: Space-Track

Epoch: Sep 14, 2026, 15:53 UTC

1 47936U 21022E   26257.66216260  .00000592  00000-0  53708-4 0  9990
2 47936  97.5222 138.0289 0011665   8.3430 351.7985 14.98856079299304

Track GRUS-1D in real time with AllMySat

Download on the App Store